Regional Weather Roundup
Issued by NWS

Home | Current Version | Previous Version | Text Only | Print | Product List | Glossary Off
Versions: 1 2 3 4 5 6 7 8 9 10 11 12 13 14 15 16 17 18 19 20 21 22 23 24 25 26 27 28

000
ASUS45 KTFX 210510
RWRMT
MONTANA REGIONAL WEATHER ROUNDUP
NATIONAL WEATHER SERVICE GREAT FALLS MT
1100 PM MDT THU JUL 20 2017

NOTE: "FAIR" INDICATES FEW OR NO CLOUDS BELOW 12000 FEET WITH NO
SIGNIFICANT WEATHER AND/OR OBSTRUCTIONS TO VISIBILITY.

MTZ001>007-043-210600-
WEST OF THE DIVIDE

CITY           SKY/WX    TMP DP  RH WIND       PRES   REMARKS
KALISPELL      PTCLDY    69  34  27 W8        29.99R
MISSOULA       CLEAR     70  35  27 N8        30.02R
BUTTE          CLEAR     70  35  27 N12       30.09R
MULLAN PASS    CLEAR     52  30  43 VRB5      30.17R
ANACONDA         N/A     66  36  32 E6        30.08R
EUREKA           N/A     66  37  34 MISG      29.98S
HAMILTON         N/A     70  43  37 SE3       30.04R
LIBBY            N/A     64  30  27 CALM      29.99R
PLAINS           N/A     72  33  23 S13       30.02R
$$

MTZ008-052>055-210600-
SOUTHWEST MONTANA

CITY           SKY/WX    TMP DP  RH WIND       PRES   REMARKS
BOZEMAN        CLEAR     72  37  28 N9        29.99R
DILLON         CLEAR     66  37  34 N6        30.04R
W YELLOWSTONE  CLEAR     63  43  48 CALM      30.15S
ENNIS          CLEAR     73  36  25 NE7       30.06S
THREE FORKS      N/A     74  38  27 NW2       29.99R
TWIN BRIDGES     N/A     76  35  22 N10       30.01R
$$

MTZ009-010-012-014-046-048-049-054-210600-
EAST SLOPES AND CENTRAL MONTANA

CITY           SKY/WX    TMP DP  RH WIND       PRES   REMARKS
CUT BANK       CLEAR     68  38  33 W17       29.93R
GREAT FALLS    CLEAR     69  31  24 SW8       29.92R
HELENA         CLEAR     77  33  20 N8        29.98R
CHOTEAU          N/A     68  32  26 W9        29.96R
CONRAD           N/A     73  36  26 W12       29.95R
$$

MTZ011-013-016-021-045-047-050-051-210600-
NORTH CENTRAL MONTANA

CITY           SKY/WX    TMP DP  RH WIND       PRES   REMARKS
HAVRE          CLEAR     73  38  27 W10       29.78S
LEWISTOWN      PTCLDY    71  32  23 SW6       29.94R
N BAR RANCH      N/A     70  34  26 NW13      29.94S
CHINOOK          N/A     79  48  34 CALM      29.76F
$$

MTZ017>020-022>027-061-062-210600-
NORTHEAST MONTANA

CITY           SKY/WX    TMP DP  RH WIND       PRES   REMARKS
GLASGOW        CLEAR     76  48  37 E21G30    29.74F
JORDAN           N/A     77  54  44 E6        29.77F
SIDNEY         CLOUDY    73  60  63 E6        29.78F
WOLF POINT     CLOUDY    75  50  41 E13       29.75F
MALTA          CLOUDY    77  48  36 E8G17     29.76R
PLENTYWOOD       N/A     72  54  53 E17       29.80F
POPLAR           N/A     73  54  49 E10       29.76F
$$

MTZ028>42-056>058-210600-
SOUTHCENTRAL AND SOUTHEAST MONTANA

CITY           SKY/WX    TMP DP  RH WIND       PRES   REMARKS
BAKER          CLOUDY    76  57  51 S18       29.85R
BILLINGS       PTCLDY    80  47  31 W21G28    29.82S
LIVINGSTON     PTCLDY    73  36  25 W7        29.96R
MILES CITY     MOCLDY    81  46  29 N5        29.78R
BIG TIMBER     PTCLDY    81  30  16 S5        29.96R
FORSYTH          N/A     82  48  30 CALM      29.75S
LAUREL           N/A     77  49  37 SW14      29.85R
ROUNDUP          N/A     76  43  30 SW6       29.77S
$$

REGIONAL REPORTS...DAKOTAS

CITY           SKY/WX    TMP DP  RH WIND       PRES   REMARKS
WILLISTON      CLOUDY    77  59  53 E15G23    29.80F
MINOT          CLOUDY    70  62  76 E12       29.84F
DICKINSON      CLOUDY    69  60  73 SE17G23   29.82R
BEACH            N/A     68  59  73 SE7       29.83S
CROSBY           N/A     72  55  56 SE10      29.82S
TIOGA            N/A     70  61  73 E20G28    29.85F
WATFORD CITY     N/A     70  59  68 E7        29.80S
BISMARCK       CLOUDY    75  57  53 SE9       29.83F
GRAND FORKS    CLOUDY    73  65  75 E8        29.87F
FARGO          CLOUDY    77  67  71 SE7       29.88F
BUFFALO SD       N/A     69  62  78 S14G24    29.82S
RAPID CITY     CLOUDY    80  60  50 CALM      29.92R
$$

REGIONAL REPORTS...WYOMING/IDAHO/WASHINGTON

CITY           SKY/WX    TMP DP  RH WIND       PRES   REMARKS
GILLETTE       CLOUDY    69  59  70 S12       29.96F
SHERIDAN       CLOUDY    72  52  49 S6        29.88F
BUFFALO WY     CLOUDY    74  48  39 S18       29.97F
CODY           CLOUDY    69  54  58 SE15      30.02R
YELLOWSTONE LA   N/A     49  48  97 CALM      30.28S
IDAHO FALLS    CLEAR     71  43  36 S12       30.04R
BOISE          CLEAR     77  37  23 SE3       29.95R
SPOKANE        MOCLDY    67  38  34 S7        30.03R
$$

REGIONAL REPORTS...ALBERTA

CITY           SKY/WX    TMP DP  RH WIND       PRES   REMARKS
EDMONTON       RAIN      55  54  94 NW8       29.79F
CALGARY        MOCLDY    59  48  67 NW10G18   29.92R
LETHBRIDGE     CLEAR     72  36  26 W29G35    29.86R
MEDICINE HAT   CLEAR     72  54  53 NE6       29.77S
WATERTON GATE    N/A     64  34  32 W14G21      N/A
CARDSTON         N/A     66  37  34 W10G17      N/A
MILK RIVER       N/A     64  36  34 W10         N/A
$$

REGIONAL REPORTS...SASKATCHEWAN

CITY           SKY/WX    TMP DP  RH WIND       PRES   REMARKS
SWIFT CURRENT  PTCLDY    68  50  52 SE12G20   29.79S
REGINA         MOCLDY    70  59  68 NE8       29.87R
SASKATOON      TSTM      63  55  77 E15G22    29.85S
CYPRESS HILLS    N/A     66  43  42 E7          N/A
ROCKGLEN         N/A     66  50  55 SE12        N/A
$$




USA.gov is the U.S. government's official web portal to all federal, state and local government web resources and services.